Regional Weather Roundup
Issued by NWS Wakefield, VA

Home | Current Version | Previous Version | Text Only | Print | Product List | Glossary Off
Versions: 1 2 3 4 5 6 7 8 9 10 11 12 13 14 15 16 17 18 19 20 21 22 23 24 25 26 27 28 29 30 31 32 33 34 35 36 37 38 39 40 41 42 43 44 45 46 47 48 49 50

134
ASUS41 KAKQ 231015
RWRAKQ

REGIONAL WEATHER ROUNDUP
NATIONAL WEATHER SERVICE WAKEFIELD VA
600 AM EDT SAT JUL 23 2016

Note: "fair" indicates few or no clouds below 12,000 feet with no
significant weather and/or obstructions to visibility. * = Denotes
station may not report precipitation (e.g., rain,snow,etc.),
thunder or fog.

VAZ042-051-052>054-056-231100-
NORTHERN VIRGINIA

CITY           SKY/WX    TMP DP  RH WIND       PRES   REMARKS
WASH NATIONAL  FAIR      79  71  76 N9        29.93S
DULLES         FAIR      71  69  93 SW3       29.95S
FORT BELVOIR   FAIR      71  70  95 S1        29.93S
QUANTICO       FAIR      76  71  85 NW6       29.94S
FREDERICKSBRG* FAIR      72  72 100 CALM      29.94R
STAFFORD*      FAIR      69  68  95 CALM      29.98S FOG
WARRENTON      FOG       68  64  86 CALM      29.95S VSB 1/4
CULPEPER*      FOG       69  69 100 CALM      29.96S VSB 1/4
MANASSAS*      FAIR      72  70  94 CALM      29.95R
LEESBURG*      FAIR      77  72  83 NW5       29.96S
WINCHESTER     FAIR      72  68  88 W3        29.99R
FRONT ROYAL*   FAIR      70  68  94 S5        29.97S
LURAY*         FAIR      68  68 100 CALM      30.01R
$$

VAZ048-049-060>072-079>083-231100-
CENTRAL AND SOUTH CENTRAL VIRGINIA

CITY           SKY/WX    TMP DP  RH WIND       PRES   REMARKS
RICHMOND       FAIR      74  72  93 S3        29.94S
CHESTERFIELD*  FAIR      73  63  68 CALM      29.96S
PETERSBURG*    FAIR     N/A N/A N/A CALM      29.96R HAZE
HANOVER        FAIR      73  70  90 CALM      29.96R FOG
TAPPAHANNOCK*  FAIR      74  74 100 CALM      29.95R FOG
QUINTON*       FAIR      75  74  97 CALM      29.94R
CHARLOTTSVILLE FAIR      73  69  87 CALM      29.97R
GORDONSVILLE*  FAIR      68  68 100 N5        29.96R FOG
ORANGE*          N/A     70  70 100 CALM      29.98R
LOUISA*          N/A     72  70  94 CALM      29.95S FOG
BUMPASS*       FAIR      70  70 100 CALM      29.96R
FARMVILLE*     FAIR      73  73 100 CALM      29.95S FOG
CREWE*         FAIR      72  72 100 CALM      29.96S
FORT PICKETT*  FAIR      72  71  97 CALM      29.97R
CHASE CITY*    FAIR      72  71  95 CALM      29.98S
CLARKSVILLE*   FAIR      72  72 100 CALM      29.97S
SOUTH HILL*    FAIR      71  70  97 CALM      30.02S
LAWRENCEVILLE* FAIR      72  71  97 CALM      29.97R
EMPORIA*         N/A     72  70  94 CALM      29.97S
$$

VAZ088>098-231100-
SOUTHEAST VIRGINIA

CITY           SKY/WX    TMP DP  RH WIND       PRES   REMARKS
NORFOLK        FAIR      77  71  82 SW10      29.95R
VIRGINIA BEACH FAIR      80  70  71 SW9       29.95R
NORFOLK NAVAL  FAIR      77  71  82 SW7       29.96S
WEST POINT*    FAIR      76  74  92 SW3       29.96R
SALUDA*        FAIR      76  75  97 CALM      29.94R
NEWPORT NEWS   FAIR      76  73  91 SW7       29.95R
LANGLEY AFB    FAIR      77  73  88 S10       29.95R
FORT EUSTIS    FAIR      76  73  90 VRB3      29.94R
WILLIAMSBURG*  FAIR      79  73  83 CALM      29.96R
HR EXEC AP*    FAIR      73  70  88 SW5       29.98S
FRANKLIN*      FAIR      73  71  91 SW3       29.97R
US460-WAKEFLD  FAIR      74  71  91 S3        29.96R FOG
$$

VAZ020-022-025-037-045-231100-
WEST CENTRAL AND SOUTHWEST VIRGINIA

CITY           SKY/WX    TMP DP  RH WIND       PRES   REMARKS
STAUNTON*      FAIR      65  65  97 CALM      30.04S FOG
WAYNESBORO*    FAIR      66  65  96 CALM      30.04R
HOT SPRINGS VA FAIR      66  66 100 NW8       30.17S
LYNCHBURG      FAIR      69  68  96 CALM      30.01S
DANVILLE       FAIR      71  69  93 SW6       29.99S
SOUTH BOSTON*  FAIR      69  67  94 CALM      29.98S
MARTINSVILLE   FAIR      66  65  97 CALM      30.04R
ROANOKE        FAIR      72  67  84 W5        30.04S
BLACKSBURG     FAIR      66  66  98 CALM      30.13R FOG
DUBLIN*        FAIR      66  65  96 SW3       30.11R
MARION*        FAIR      64  63  96 CALM      30.16R
HILLSVILLE*    FAIR      65  65  99 SW3       30.12R
RICHLANDS*     FAIR      67  65  95 CALM      30.13R
WISE*          FAIR      70  66  88 CALM      30.15S
ABINGDON*      FAIR      69  67  94 CALM      30.10S
$$

MDZ021>025-VAZ099-100-231100-
SOUTHERN MARYLAND AND THE DELMARVA PENINSULA

CITY           SKY/WX    TMP DP  RH WIND       PRES   REMARKS
PATUXENT RIVER CLEAR     76  71  85 SW6       29.92S
BAY BRIDGE APT CLEAR     82  73  74 NW10      29.91S
LEONARDTOWN    CLEAR     73  70  88 CALM      29.95R
DOVER          CLEAR     78  76  96 W7        29.90R
GEORGETOWN     CLEAR     77  72  84 W3        29.91S
EASTON         CLEAR     79  77  94 CALM      29.95S
CAMBRIDGE      CLEAR     72  70  94 CALM      29.92R
SALISBURY      CLEAR     77  75  93 W3        29.92R
OCEAN CITY     CLEAR     77  75  93 W5        29.91R
WALLOPS ISLAND FAIR      80  77  90 W6        29.93R
ACCOMACK*      FAIR      79  73  83 W6        29.94R
$$

NCZ012>017-030>032-231100-
NORTH CENTRAL AND EASTERN NORTH CAROLINA

CITY           SKY/WX    TMP DP  RH WIND       PRES   REMARKS
ROANOKE RAPIDS FAIR      72  72 100 SW5       29.97S
RALEIGH        PTCLDY    73  70  90 W3        29.99R
ELIZABETH CITY CLEAR     75  71  87 SW7       29.97R
AHOSKIE*       PTCLDY    71  70  97 CALM      29.98R
EDENTON*       CLEAR     79  71  77 SW7       29.99S
CURRITUCK*     CLEAR     76  71  84 SW5       29.97S
KILL DEVIL HLS CLEAR     77  72  84 SW6       29.97S
MANTEO           N/A     77  75  93 W10       29.99R
CAPE HATTERAS  CLEAR     81  73  76 W7        30.00S
TARBORO*       FAIR      73  71  94 CALM      29.99S
GOLDSBORO      CLEAR     74  74 100 SW2       29.98R
WASHINGTON     CLEAR     73  70  90 SW3       29.99R
GREENVILLE     CLEAR     73  72  94 CALM      30.00S
NEW BERN       CLEAR     74  71  91 S3        30.01S
WILMINGTON     MOCLDY    76  73  91 CALM      30.01R
$$

VAZ048-231100-
ELSEWHERE

CITY           SKY/WX    TMP DP  RH WIND       PRES   REMARKS
HARRISBURG PA  PTCLDY    75  72  90 NE3       29.91R
BALTIMORE      PTCLDY    77  70  79 W8        29.92S
ANNAPOLIS      CLEAR     80  71  74 W5        29.92R
ANDREWS AFB    FAIR      79  71  75 NW8       29.93S
PHILADELPHIA   PTCLDY    77  68  73 W8        29.90R
GREENSBORO     PTCLDY    73  70  90 NW3       30.01R
ROCKY MOUNT    CLEAR     71  71 100 CALM      29.98S
$$

VAZ100-231100-
MARINE

STATION/POSITION TIME  TEMP    WIND        PRES    WAVE   SWELL
                       AIR SEA DIR/SP/G            HT/PER HT/PER
                 (UTC) (F)     (DEG/KT/KT) (MB)    (FT/S) (FT/S)
BRANDYWINE LGT   0900   79     270/ 13/ 14   N/A
CAPE MAY NJ      0900   79 74  270/ 11/ 12 1011.5F
LEWES DE         0900   79 73  250/  7/  8 1012.0F
OCEAN-CITY-INLET 0900   78 71  280/  6/  7 1012.9F
WACHAPREAGUE VA  0900   79 84  230/  4/  5 1013.3F
THOMAS POINT MD  1000   80 81  300/ 13/ 14 1014.5R
GOOSES REEF MD   1000   82 82  290/  6/  8 1014.1R   1/ 2
COVE POINT MD    0900   81     310/  7/ 11 1013.4F
SOLOMONS ISLAND  0900   80 83  270/  4/  5   N/A
BISHOPS HEAD MD  0900   83 84  290/ 11/ 13 1013.2F
PINEY POINT MD   0900          290/  6/  7   N/A
POTOMAC MD       1000   81 83  260/  8/ 10 1012.4R   1/ 2
CAMBRIDGE MD     0900   79 85   CALM  /  1 1012.0F
LEWISETTA VA     0900   80 84  280/  5/  6 1012.9S
RAPPAHANNOCK LGT 0900          240/ 14/ 15 1013.8F
STINGRAY PT      1000   80 84  200/ 10/ 12 1014.1R   1
YORK RVR RNG VA  0900   79     250/ 12/ 14 1013.1F
YORKTOWN VA      0900   78 82  240/  5/  8 1013.3R
JAMESTOWN VA     1000   77 86  240/  6/  8   N/A     0
DOMINION TERM VA 0900   79     230/ 11/ 13 1013.9S
KIPTOPEKE VA     0900      80  240/ 11/ 12   N/A
CHES BAY BRIDGE  0900   79 80  210/ 12/ 14 1013.7S
CAPE HENRY VA    0900   78     220/  9/ 13   N/A
WILLOUBY STN VA  0900   78     210/ 10/ 11   N/A
CAPE HENRY BUOY  0912      79                N/A     3/ 8
1ST LANDING BUOY 1000   78 79  220/ 12/ 14 1013.9R
CAPE CHARLES BUO 0926      71                N/A     2/ 8
OFFSHORE WE BUOY 0921      81                N/A     4/ 9
64NM E OF VA BCH 0950   80 80  230/ 17/ 19 1014.4R   4/ 5   2/ 8
DUCK PIER NC     0900   79 64  230/ 12/ 17 1014.3F
44100 DUCK FRF   0905      80                N/A     3/ 8
44056 DUCK FRF   0911      69                N/A     2/ 8
OREGON INLET NC  0900   81 85  230/ 15/ 16 1015.2F
HATTERAS NC      0900   80 83  230/  5/  8 1015.6F
DIAMOND SHLS NC  0950   83 85  240/ 12/ 14 1016.0S   2/ 8   2/ 8
CAPE LOOKOUT NC  1000   81     220/  4/  5 1015.9R
$$




USA.gov is the U.S. government's official web portal to all federal, state and local government web resources and services.